Regional Weather Roundup
Issued by NWS Kansas City/Pleasant Hill, MO

Home | Current Version | Previous Version | Text Only | Print | Product List | Glossary On
Versions: 1 2 3 4 5 6 7 8 9 10 11 12 13 14 15 16 17 18 19 20 21 22 23 24 25 26 27 28 29 30 31 32 33 34 35 36 37 38 39 40 41 42 43 44 45 46 47 48 49 50
000
ASUS43 KEAX 280310
RWREAX

WEATHER ROUNDUP FOR EASTERN KANSAS AND NORTHWEST MISSOURI
NATIONAL WEATHER SERVICE KANSAS CITY/PLEASANT HILL MO
1000 PM CDT MON MAR 27 2017

KSZ040-057-103>105-MOZ028-029-037-043-280400-
...KANSAS CITY METROPOLITAN AREA...

CITY           SKY/WX    TMP DP  RH WIND       PRES   REMARKS
K.C. INTL      CLOUDY    51  46  83 NE6       29.99R
K.C. DOWNTOWN  CLOUDY    52  45  77 N5        29.98R
LEES SUMMIT    CLOUDY    51  47  86 NE5       29.99R
OLATHE - IXD   CLOUDY    51  45  79 NE5       29.98R
OLATHE - OJC   CLOUDY    51  46  83 NE7       29.98R
LAWRENCE       CLOUDY    53  47  79 N7        29.99R

$$

MOZ001>008-011>017-020>025-030>033-038>040-044>046-053-054-280400-
...NORTHERN AND CENTRAL MISSOURI...

CITY           SKY/WX    TMP DP  RH WIND       PRES   REMARKS
ST. JOSEPH     CLOUDY    47  44  90 N5        30.00R
WARRENSBURG    CLOUDY    48  46  93 N3        29.99R
WHITEMAN AFB   CLOUDY    50  50 100 N7        29.97R
CLINTON        CLOUDY    50  50 100 N6        29.99R
SEDALIA        CLOUDY    51  50  96 NW5       29.99R
WARSAW         NOT AVBL
CHILLICOTHE      N/A     49  47  93 N6        30.00R
KIRKSVILLE     CLOUDY    49  46  90 N7        29.98R

$$

MOZ041-047>049-056>058-063>065-088>090-097-280400-
...EASTERN AND SOUTHERN MISSOURI...

CITY           SKY/WX    TMP DP  RH WIND       PRES   REMARKS
ST. LOUIS INTL PTCLDY    55  51  86 N7        29.93R
SPIRIT OF STL  CLOUDY    57  54  89 N5        29.93R
COLUMBIA       CLOUDY    53  53 100 NE12      29.94S
JEFFERSON CITY CLOUDY    56  53  90 CALM      29.95R
ROLLA          CLOUDY    52  52 100 W5        29.94S FOG
OSAGE BEACH    LGT RAIN N/A N/A N/A VRB3      29.97R
SPRINGFIELD    CLOUDY    52  50  93 NW6       29.96R
JOPLIN         CLOUDY    52  50  93 NE6       29.97R
WEST PLAINS    CLEAR     54  50  86 N8        29.94R

$$

IAZ060-094-KSZ022-034>040-054-083-096-NEZ052-066-093-280400-
...KANSAS...SOUTHEAST NEBRASKA AND IOWA...

CITY           SKY/WX    TMP DP  RH WIND       PRES   REMARKS
TOPEKA         CLOUDY    52  46  80 N6        29.99R
MANHATTAN      CLOUDY    52  46  80 E5        29.99R
EMPORIA        CLOUDY    53  47  79 E5        29.98R
CHANUTE        CLOUDY    53  46  77 NE6       29.99R
WICHITA        CLOUDY    52  46  80 E6        29.98R
OMAHA          CLOUDY    49  40  71 E6        29.99R
LINCOLN        CLOUDY    43  38  82 CALM      30.01R
FALLS CITY     CLOUDY    47  40  76 N5        30.00R
LAMONI         CLOUDY    48  43  82 NE7       29.99R
DES MOINES     CLOUDY    49  40  71 N8        30.00R

$$




USA.gov is the U.S. government's official web portal to all federal, state and local government web resources and services.